Jean Philippe Monclin

Jean Philippe Monclin

Statistiques 2026

  • Courses courues : 76
  • Nb de victoires : 17
  • Nb de places : 35
  • Écart gagnant : 2
  • Réussite à la gagne : 22%
  • Réussite à la place : 46%
Musique : 0a 2a 1a 0a 4a 0a 4a 1a 6a Da 3a Da 3a 1a 1a 3a 5a 2a
DateRangCatégorieAlloc.Dist.HippodromeChevalRed. KmSpé.
04/08/14 4 Trot 13 000€ 2 600m Blain Acala du Patural Attelé
04/08/14 D Trot 13 000€ 2 600m Blain Aramis Commanderie Attelé
04/08/14 1 Trot 15 000€ 2 625m Blain Unique des Vents TNC Attelé
04/08/14 1 Trot 20 000€ 2 625m Blain Saphir du Tresor TNC Attelé
24/08/14 1 Trot 13 000€ 2 625m Blain A Toi Jim TNC Attelé
24/08/14 2 Trot 15 000€ 2 625m Blain Udine de la Coudre Attelé
24/08/14 D Trot 13 000€ 2 600m Blain Arianga Magic Attelé
24/08/14 3 Trot 17 000€ 2 625m Blain Ursin du Moulin Attelé
06/08/12 4 Trot 11 000€ 2 600m Blain Very Happy Jihem Attelé
06/08/12 D Trot 15 000€ 2 625m Blain Spout Jim Attelé
06/08/12 3 Trot 19 000€ 2 600m Blain Sandro du Reverdy Attelé
23/09/12 2 Trot 12 000€ 2 625m Blain Ursula du Beau Nid Attelé
23/09/12 6 Trot 14 000€ 2 625m Blain Ulcain Attelé
23/09/12 1 Trot 14 000€ 2 600m Blain Tovario TNC Attelé
23/09/12 7 Trot 19 000€ 2 600m Blain Saphir du Tresor Attelé
25/08/13 1 Trot 13 000€ 2 625m Blain Viking du Donjon TNC Attelé
25/08/13 0 Trot 15 000€ 2 625m Blain Titus le Grand Attelé
07/08/17 D Trot 11 000€ 2 625m Blain Eau Claire Jihem Attelé
07/08/17 1 Trot 13 000€ 2 600m Blain Diva de Minel TNC Attelé
07/08/17 D Trot 16 000€ 2 600m Blain Biganzag Attelé
07/08/17 D Trot 20 000€ 3 200m Blain Blason Vivanciere Attelé
30/09/23 1 Trot 13 000€ 2 600m Blain Kenya de Chanlecy Attelé
30/09/23 1 Trot 13 000€ 2 600m Blain Kash Sniper Attelé
30/09/23 D Trot 13 000€ 2 625m Blain Jirolia du Plessis Attelé
30/09/23 D Trot 13 000€ 2 600m Blain Jourga du Val Attelé
30/09/23 9 Trot 13 000€ 2 625m Blain Jo Lotozo Attelé
30/09/23 D Trot 13 000€ 2 600m Blain Jackxel Attelé
30/09/23 0 Trot 19 000€ 3 225m Blain Gina Pride Attelé
28/09/08 6 Trot 11 000€ 2 500m Bihorel Les Rouens Reine du Plessis Attelé
21/05/09 3 Trot 9 000€ 2 500m Bihorel Les Rouens Soniki de Viette Attelé
06/07/08 D Trot 11 000€ 2 825m Bernay Piperade Bay Attelé
15/05/11 4 Trot 13 000€ 2 300m Bernay Under Your Eyes Attelé
15/05/11 D Trot 14 000€ 2 300m Bernay Sormiou Gentille Monté
15/05/11 0 Trot 40 000€ 2 800m Bernay Putting Attelé
01/05/22 D Trot 13 000€ 2 300m Bernay Juste Parfaite Attelé
01/05/22 1 Trot 13 000€ 2 800m Bernay Isco du Moncel TNC Attelé
01/05/22 1 Trot 45 000€ 2 800m Bernay Gaspar d'Angis TNC Attelé
01/05/22 6 Trot 13 000€ 2 800m Bernay Ideal Madrik Attelé
01/05/22 8 Trot 18 000€ 2 800m Bernay Hapollonia Attelé
30/08/15 1 Trot 26 000€ 2 800m Bernay Blason de Lassay 1'21"9 Attelé
30/08/15 1 Trot 35 000€ 2 800m Bernay Vasco de Graux 1'19"8 Attelé
30/08/15 6 Mixte 20 000€ 2 425m Beaupreau Unique des Vents Attelé
30/08/14 1 Mixte 12 000€ 2 400m Beaupreau Varum des Racques TNC Attelé
23/03/08 3 Trot 15 000€ 2 575m Beaumont De Lomagne Opale des Salines 1'19"5 Monté
23/03/08 D Trot 12 000€ 2 375m Beaumont De Lomagne Quick de Moutiers Attelé
23/03/08 6 Trot 14 000€ 2 375m Beaumont De Lomagne Obellia William 1'17"6 Attelé
24/03/08 3 Trot 12 000€ 2 550m Beaumont De Lomagne Qlinmon 1'20"9 Monté
24/03/08 0 Trot 13 000€ 2 550m Beaumont De Lomagne Narvik du Puits Attelé
24/03/08 7 Trot 18 000€ 2 375m Beaumont De Lomagne One Love Danover 1'17"7 Attelé
31/08/08 3 Trot 35 000€ 2 575m Beaumont De Lomagne Ma Sissi James 1'15"9 Attelé lire

Longtemps dernière, a fait le tour du peloton en face avant de plafonner pour finir.